レモン彗星

C/2023 X2 ( Lemmon )

English version
Home page
Updated on March 23, 2025

---------------------------------------------------------------------

・ プロフィール

発見日 2023年12月4日
発見光度 19.7等、20.5等
発見者 Mt. Lemmon Survey, Pan-STARRS 1 telescope (Haleakala)

・ 写真集

・ 軌道要素

Epoch 2025 May 5.0 TT = JDT 2460800.5
T 2025 Dec. 28.09056 TT                                 Pike
q   5.0889553            (2000.0)            P               Q
z  -0.0000419      Peri.   64.75481     -0.01513880     -0.45144528
 +/-0.0000030      Node    66.30477     +0.08287803     -0.88976878
e   1.0002131      Incl.   76.98431     +0.99644470     +0.06714667
From 303 observations 2023 Aug. 18-2025 Feb. 27, mean residual 0".4.

・ 光度変化

        m1 = 7.0 + 5 logΔ + 10.0 log r

---------------------------------------------------------------------

軌道要素はM.P.E.C. 2025-D254に掲載されたものです。
光度グラフはComet for Windowsで作成したものです。

---------------------------------------------------------------------

Copyright(C) Seiichi Yoshida (comet@aerith.net). All rights reserved.